Regional Weather Roundup
Issued by NWS

Home | Current Version | Previous Version | Text Only | Print | Product List | Glossary On
Versions: 1 2 3 4 5 6 7 8 9 10 11 12 13 14 15 16 17 18 19 20 21 22 23 24 25 26 27 28 29 30 31 32 33 34 35 36 37 38 39 40 41 42 43 44 45 46 47 48 49 50
000
ASCA44 KEWX 291020
RWRMX

LATIN AMERICA AND CARIBBEAN REGIONAL WEATHER ROUNDUP
NATIONAL WEATHER SERVICE AUSTIN/SAN ANTONIO TX
400 AM CST MON DEC 29 2014

NOTE: "FAIR" INDICATED FEW OR NO CLOUDS BELOW 12,000 FEET WITH NO
SIGNIFICANT WEATHER AND/OR OBSTRUCTIONS TO VISIBILITY.

BAJA CALIFORNIA

CITY           SKY/WX    TMP DP  RH WIND       PRES   REMARKS
TIJUANA        CLEAR     45  32  61 SE6       30.17  WCI  41

NORTHWESTERN MEXICO

CITY           SKY/WX    TMP DP  RH WIND       PRES   REMARKS

NORTHEASTERN MEXICO

CITY           SKY/WX    TMP DP  RH WIND       PRES   REMARKS
MONTERREY      CLOUDY    45  43  93 S3        30.12F
REYNOSA        CLOUDY    41  39  93 E2        30.16F FOG

WESTERN MEXICO

CITY           SKY/WX    TMP DP  RH WIND       PRES   REMARKS
DEL BAJIO      PTCLDY    45  39  81 N6        30.30S WCI  41
GUADALAJARA    CLEAR     46  45  93 CALM      30.20S
MAZATLAN       CLEAR     52  48  87 N8        29.96S
P. VALLARTA    CLEAR     68  66  94 CALM      29.95F
ZACATECAS      CLEAR     36  28  75 S7        30.28  WCI  30

CENTRAL MEXICO

CITY           SKY/WX    TMP DP  RH WIND       PRES   REMARKS
MEXICO CITY    CLEAR     52  45  76 CALM      30.31S
MORELIA        CLEAR     43  41  93 CALM      30.24S
QUERETARO      CLEAR     43  36  75 CALM      30.30S
S. LUIS POTOSI FOG       48  48 100 CALM      30.25  VSB 1/8
TAMPICO        CLOUDY    57  54  88 W3        30.15
TOLUCA         PTCLDY    37  36  93 CALM      30.38  FOG

SOUTHERN MEXICO

CITY           SKY/WX    TMP DP  RH WIND       PRES   REMARKS
ACAPULCO       PTCLDY    73  70  88 N6        29.90S
VERACRUZ       MOCLDY    70  63  78 N9        30.05S

YUCATAN PENINSULA

CITY           SKY/WX    TMP DP  RH WIND       PRES   REMARKS
CANCUN         CLEAR     75  73  94 E6        30.04S
COZUMEL        CLEAR     70  70 100 CALM      30.03S
MERIDA         PTCLDY    72  72 100 E5        30.01S
TAPACHULA      CLEAR     77  72  83 CALM      29.89S

CENTRAL AMERICA

CITY           SKY/WX    TMP DP  RH WIND       PRES   REMARKS

CARIBBEAN

CITY           SKY/WX    TMP DP  RH WIND       PRES   REMARKS
ARUBA          PTCLDY    77  73  88 E15       29.92R
CURACAO        LGT RAIN  79  75  89 E14       29.94S
KINGSTON       PTCLDY    77  70  78 VRB2      29.97S
NASSAU         PTCLDY    72  66  83 CALM      30.14F
SAN JUAN       PTCLDY    73  72  94 CALM      30.06R
SANTO DOMINGO  PTCLDY    70  68  94 CALM      30.03S

$$




USA.gov is the U.S. government's official web portal to all federal, state and local government web resources and services.